Vous êtes sur la page 1sur 5

Trail Blanch Font Romeu 2009

www.trailblanch-fontromeu.org
17 et 18 janvier 2009 Classement : ChronoRAID

13 km - 350m D+ wwww.chronoraid.fr

Classement général
(230/230)
Clt. Temps Diff. NOM Prenom Catg. Club Dos.
1 1:20:15 VILES Llei HSE (1) (ES) Centre Alpi Gironella 1
2 1:20:29 0:00:14 RONGERE Sebastien HSE (2) (FR) 201
3 1:21:05 0:00:50 COPPINGER Niall HV1 (1) (IE) Tallaght Ac 42
4 1:21:44 0:01:29 MONTRET Christophe HSE (3) (FR) Athle 632 157
5 1:22:38 0:02:23 SALVADOR Jesus HSE (4) (FR) Mountain Runners 209
6 1:23:03 0:02:48 ALARY Thierry HV1 (2) (FR) Usc 3
7 1:23:03 0:02:48 FOISSAC Olivier HV1 (3) (FR) Us Carmaux 72
8 1:24:13 0:03:58 SOUM Vivien HSE (5) (FR) Spiridon Du Couserans 225
9 1:24:29 0:04:14 TERVO Susanna DSE (1) (FI) Ms Parma/Finlandia 228
10 1:25:48 0:05:33 BENSET Loic HSE (6) (FR) Mistral Triath' Club 18
11 1:26:31 0:06:16 RODEMBOURG Stephane HSE (7) (FR) 196
12 1:26:43 0:06:28 CHEVRIER Jean-Sebastien HV1 (4) (FR) 37
13 1:30:17 0:10:02 TOOGOOD Alan HV1 (5) (FR) Conseil General De L'Ariege229
14 1:30:58 0:10:43 SHORTEN Desie HV2 (1) (IE) Tallaght Ac 217
15 1:33:46 0:13:31 ROMANI Marc HJU (1) (ES) Can Caralleu 200
16 1:33:59 0:13:44 GIRMA Guillaume HJU (2) (FR) 86
17 1:34:11 0:13:56 OLIVA PUJOL Marc HSE (8) (ES) Club Excursionista Empordanes
251
18 1:34:21 0:14:06 CORDEIRO Eric HV1 (6) (FR) Asc Conduire Juste 43
19 1:34:37 0:14:22 DELAPLACE Ludovic HSE (9) (FR) Cnec 55
20 1:34:46 0:14:31 DELCOIGNE Sebastien HSE (10) (FR) 56
21 1:35:08 0:14:53 MARTY Jerome HSE (11) (FR) Selection Nationale Des Coureurs
142 A Pied D
22 1:35:35 0:15:20 MANEN Thomas HJU (3) (FR) Acn Anduze 135
23 1:35:54 0:15:39 CHIRI Stephane HSE (12) (FR) Ctre. Escalade Buis Les Baronnies
38
24 1:36:20 0:16:05 SOYER Laeticia DSE (2) (FR) Sat Uc 226
25 1:38:28 0:18:13 ARRARAS Txemari HV1 (7) (ES) Girizia 8
26 1:38:44 0:18:29 HERIVEAU Jean-Louis HV2 (2) (FR) 92
27 1:39:20 0:19:05 GUILLEN Manel HSE (13) (ES) Centre Alpi Gironella 87
28 1:39:31 0:19:16 TORRE Julien HSE (14) (FR) 230
29 1:40:23 0:20:08 VILALTA CAELLAS Oriol HSE (15) (ES) Centre Alpi Gironella 243
30 1:40:40 0:20:25 BOHER Antoine HV1 (8) (FR) Cnec 21
31 1:41:35 0:21:20 JUAN Joseph HV1 (9) (FR) Pacoulix 106
32 1:43:02 0:22:47 ARRARAS Andoni HSE (16) (ES) Girizia 7
33 1:44:11 0:23:56 FERRIER LAFARGUE Jean-PaulHSE (17) (FR) Mvc Orientation Raids 70
34 1:44:47 0:24:32 COTTIGNIES Sebastien HSE (18) (FR) 45
35 1:44:47 0:24:32 QUEVARREC Guillaume HSE (19) (FR) Cnec 184
36 1:45:05 0:24:50 MCDERMOTT Ailish DSE (3) (IE) Clonliffe Harriers 153
37 1:45:24 0:25:09 LADEVEZE Fabien HSE (20) (FR) 108
38 1:45:34 0:25:19 GOMIS REVERTE Roger HSE (21) (ES) Ngaru Extreme Runners Team 82
39 1:47:00 0:26:45 DIAFERIA Annalisa DSE (4) (IT) 61
40 1:47:30 0:27:15 BOIVIN Patrick HV1 (10) (FR) U.A.Tarbes 23
41 1:48:24 0:28:09 CUNI Stephane HSE (22) (FR) Sdis66 49
42 1:48:27 0:28:12 SAINDOU Hamidou HSE (23) (FR) 207
43 1:49:10 0:28:55 MICHEL Isabelle DSE (5) (FR) 154
44 1:49:41 0:29:26 GAUTHIER Daniel HV2 (3) (FR) 253
45 1:50:16 0:30:01 PETIT Eleonore DSE (6) (FR) Csb Brignoles 172
Page 1 de 5
Clt. Temps Diff. NOM Prenom Catg. Club Dos.
46 1:51:03 0:30:48 NARBONNE Aurelien HSE (24) (FR) 161
47 1:51:09 0:30:54 BARILLEAU Fabien HSE (25) (FR) 254
48 1:52:09 0:31:54 JOUANOLOU Marc HV1 (11) (FR) Bagneres Triathlon 105
49 1:52:27 0:32:12 LANDAIS Christophe HV1 (12) (FR) 250
50 1:52:31 0:32:16 JESUS Mendez HSE (26) (ES) Geps 101
51 1:52:51 0:32:36 SALINAS Lucien HV3 (1) (FR) 255
52 1:52:52 0:32:37 ANDRIEU Philippe HV1 (13) (FR) 6
53 1:53:56 0:33:41 BOSCH-DALMAU Elisabet DSE (7) (ES) Runnersworld 26
54 1:54:08 0:33:53 BRAOUET Jean Paul HV2 (4) (FR) 27
55 1:54:12 0:33:57 REFFAY Carole DSE (8) (FR) Acnm 187
56 1:54:14 0:33:59 GRABULOS Alain HV1 (14) (FR) 84
57 1:54:23 0:34:08 TRESSIERES Jean Pierre HV1 (15) (FR) Usca Lescure 233
58 1:54:35 0:34:20 REFFAY Pascal HSE (27) (FR) 186
59 1:54:42 0:34:27 DRAGUTINI Luc HV1 (16) (FR) 63
60 1:54:47 0:34:32 DURAND Rodolphe HV1 (17) (FR) 67
61 1:54:53 0:34:38 WHYTE Tara DSE (9) (IE) 247
62 1:54:54 0:34:39 GORMLEY Krissy DSE (10) (IE) Clonliffe Harriers 83
63 1:55:20 0:35:05 MATEOS Laurent HSE (28) (FR) Cnec 148
64 1:55:39 0:35:24 WEISSLINGER Fernand HV1 (18) (FR) 246
65 1:55:59 0:35:44 GILBERT Philippe HV2 (5) (FR) Satuc 79
66 1:56:01 0:35:46 LE PROVOST Yann HSE (29) (FR) Satuc 116
67 1:56:02 0:35:47 TORRES Carmelo HV1 (19) (FR) Sussargues Evasion 231
68 1:56:10 0:35:55 WAY Luc HSE (30) (FR) Satuc 245
69 1:56:12 0:35:57 NISSEN Cecile DSE (11) (FR) Us Carmauk 163
70 1:56:18 0:36:03 AUTIE Marc HSE (31) (FR) Sdis66 11
71 1:56:44 0:36:29 DESPRIET Stefaan HV1 (20) (BE) Ngaru Extreme Runners Team 58
72 1:56:44 0:36:29 JOUANOLOU Isabelle HV1 (21) (FR) Bagneres Triathlon 104
73 1:56:52 0:36:37 ROMANI Carlos HV2 (6) (ES) Nou Can Caralleu 199
74 1:57:07 0:36:52 PAUS PUJOL Jordi HV1 (22) (ES) 168
75 1:57:13 0:36:58 RIERA Emma DSE (12) (ES) 252
76 1:57:36 0:37:21 LAPRADE Yves HV1 (23) (FR) 114
77 1:58:12 0:37:57 DEZNANDEZ Xavier HSE (32) (FR) 60
78 1:58:22 0:38:07 GAVALDA Oriol HSE (33) (ES) 78
79 1:58:24 0:38:09 MARISTANY BIENERT Carlos HSE (34) (ES) Cat'N'Runners 137
80 1:58:49 0:38:34 CHENAULT Veronique DV1 (1) (FR) Les Angles Triathlon 35
81 1:58:58 0:38:43 INGLES Joseph HV3 (2) (FR) 99
82 1:59:21 0:39:06 PRUJA Corinne DV1 (2) (FR) Haut Vallespir Pia Athletisme182
83 1:59:25 0:39:10 SONZOGNI Pascal HSE (35) (FR) 222
84 1:59:27 0:39:12 DE ANDRADE Antoine HSE (36) (FR) 52
85 1:59:35 0:39:20 LIBERTO Gerard HV2 (7) (FR) 124
86 1:59:35 0:39:20 SONZOGNI Jean Paul HV1 (24) (FR) 221
87 1:59:39 0:39:24 PILLET Peggy DSE (13) (FR) Cnec 176
88 1:59:41 0:39:26 HIEBEL Caroline DSE (14) (FR) 97
89 2:01:15 0:41:00 LEONCINI Pierre HSE (37) (FR) Sdis66 122
90 2:01:32 0:41:17 LIBERTO Laure DSE (15) (FR) 125
91 2:01:38 0:41:23 COPPINGER Eugene HV2 (8) (IE) Clonliffe Harriers 41
92 2:01:41 0:41:26 VERSCHUERE Adeline DSE (16) (FR) 238
93 2:01:59 0:41:44 CASTANG Jeanine DV1 (3) (FR) 32
94 2:02:11 0:41:56 HERVE Sebastien HSE (38) (FR) 95
95 2:02:34 0:42:19 RUBEGUE Carole DV1 (4) (FR) 205
96 2:02:41 0:42:26 ROBUR Jean-Yannis HSE (39) (FR) 193
97 2:02:42 0:42:27 PRATS Sebastien HSE (40) (FR) Satuc 180
98 2:03:46 0:43:31 NAVARRO Nicole DV1 (5) (FR) 162

Page 2 de 5
Clt. Temps Diff. NOM Prenom Catg. Club Dos.
99 2:03:58 0:43:43 POUSSON Nathalie DSE (17) (FR) Satuc 179
100 2:04:06 0:43:51 FAURE Patrick HV1 (25) (FR) Satuc 69
101 2:04:21 0:44:06 PERREIN Marion DES (1) (FR) 170
102 2:04:27 0:44:12 LENTGEN Sebastien HSE (41) (FR) 120
103 2:04:28 0:44:13 CARRERAS Vincent HES (1) (FR) 256
104 2:05:05 0:44:50 CAMPDORAS Michel HV1 (26) (FR) 30
105 2:05:10 0:44:55 OLIVE Jean-Pierre HV3 (3) (FR) 259
106 2:05:29 0:45:14 SANS Cristina DSE (18) (ES) 212
107 2:05:32 0:45:17 BONHOME Sergi HV1 (27) (ES) Club Atletic Manresa 24
108 2:05:38 0:45:23 ROCA Stephanie DSE (19) (FR) Haut Vallespir Athletisme 194
109 2:05:45 0:45:30 DUMAS Sabine DV1 (6) (FR) Conseil General De L'Ariege 66
110 2:05:46 0:45:31 SOULIE Jerome HV1 (28) (FR) Conseil General De L'Ariege224
111 2:05:52 0:45:37 FERNANDEZ CID Josep HV2 (9) (ES) 257
112 2:05:58 0:45:43 DURR Philippe HV2 (10) (FR) 258
113 2:06:00 0:45:45 TRIBILLAC Nicolas HSE (42) (FR) 234
114 2:06:05 0:45:50 SALES Sonia DSE (20) (FR) Usc Vaison 208
115 2:06:28 0:46:13 HERRERO Eric HSE (43) (ES) Cat'N'Runners 94
116 2:06:31 0:46:16 LUNA Alexis HSE (44) (ES) 112
117 2:06:46 0:46:31 ZIEGLER Pascal HV1 (29) (FR) Cnec 248
118 2:06:51 0:46:36 LAMDENBERGUE David HSE (45) (FR) Cnec 111
119 2:06:52 0:46:37 NOVAK Pierre-Henry HV1 (30) (FR) Cnec 164
120 2:06:57 0:46:42 CHAVANON Lucovic HSE (46) (FR) Astrium 34
121 2:07:13 0:46:58 SADOURNY Marie Noelle DV1 (7) (FR) 206
122 2:07:17 0:47:02 RIGAT Francois HV1 (31) (FR) Triathlon Catalan 190
123 2:07:34 0:47:19 HERIVEAU Katy DV2 (1) (FR) 93
124 2:07:41 0:47:26 HYON Florence DSE (21) (FR) Triathlon Catalan 98
125 2:07:43 0:47:28 RODON GRAU Oscar HSE (47) (ES) 197
126 2:07:48 0:47:33 RISUENO Alonso HV1 (32) (FR) 191
127 2:09:34 0:49:19 MALTESE Laure DSE (22) (FR) Astc Triathlon Catalan 134
128 2:09:49 0:49:34 MAYLIE Elizabeth DV1 (8) (FR) 152
129 2:12:47 0:52:32 PERIGAUD Franck HV1 (33) (FR) 115
130 2:13:00 0:52:45 LEROUX Celine DSE (23) (FR) 123
131 2:13:24 0:53:09 DASSONVILLE Thomas HSE (48) (FR) 50
132 2:13:24 0:53:09 PAMPOULIE Stephanie DSE (24) (FR) Athle632 166
133 2:13:41 0:53:26 VIATGE GAUDEUL Isabelle DSE (25) (FR) 240
134 2:13:51 0:53:36 MARCHET Carinne DSE (26) (FR) Accro Velo Sport Nature 136
135 2:14:02 0:53:47 MONTES BUERA Ana DSE (27) (ES) 156
136 2:14:12 0:53:57 GAUDEUL Christophe HV1 (34) (FR) 77
137 2:15:19 0:55:04 RITTER Anke DV1 (9) (DE) Sport Ident 192
138 2:15:42 0:55:27 ALQUIER Magali DSE (28) (FR) Usc Badminton 4
139 2:16:06 0:55:51 AUTRICQUE Fabienne DSE (29) (FR) 12
140 2:16:16 0:56:01 LECUBAIN Bruno HV1 (35) (FR) Tc Lezignan 119
141 2:17:36 0:57:21 ROCHE Mary Cora DSE (30) (IE) 195
142 2:17:49 0:57:34 LECOU Jerome HSE (49) (FR) Usca Lescure 118
143 2:18:24 0:58:09 BARCELOT Sebastien HSE (50) (FR) Sdis66 13
144 2:18:30 0:58:15 MORALES Vanessa DSE (31) (FR) 158
145 2:18:35 0:58:20 BOSCH I COMAS Clara DSE (32) (ES) Vertic Runners 25
146 2:18:50 0:58:35 ALVERNHE Fernanda DV1 (10) (FR) Usca Lescure 5
147 2:18:51 0:58:36 GUIRAUD Joelle DV1 (11) (FR) As Voa 89
148 2:18:54 0:58:39 LOPEZ DENIZ Leonardo HSE (51) (ES) Arista Off-Road Team 129
149 2:19:13 0:58:58 CROUZAL Stephanie DSE (33) (FR) 48
150 2:19:32 0:59:17 MAUREL Brigitte DV2 (2) (FR) Eaunes Est La 149
151 2:19:32 0:59:17 MAUREL Jacques HV2 (11) (FR) Eaunes Est La 150

Page 3 de 5
Clt. Temps Diff. NOM Prenom Catg. Club Dos.
152 2:19:33 0:59:18 PONSA Sebastien HSE (52) (FR) 178
153 2:19:38 0:59:23 DEVIER Dominique DV1 (12) (FR) 59
154 2:19:38 0:59:23 QUINZONI Christelle DSE (34) (FR) 185
155 2:19:41 0:59:26 GUY Delphine DSE (35) (FR) 91
156 2:20:09 0:59:54 LUVISUTTO Guy HV2 (12) (FR) Eaumes Est La 130
157 2:20:58 1:00:43 TORRES Muriel DV1 (13) (FR) Sussargues Evasion 232
158 2:21:01 1:00:46 SANCHO Severine DSE (36) (FR) 211
159 2:21:03 1:00:48 COLET Elia DSE (37) (ES) 40
160 2:21:03 1:00:48 MASSONS Ester DSE (38) (ES) 147
161 2:21:12 1:00:57 JUAREZ Noella DSE (39) (ES) 107
162 2:21:16 1:01:01 BESSET Magali DSE (40) (FR) 19
163 2:21:27 1:01:12 FOURIE Josiane DV2 (3) (FR) 73
164 2:21:46 1:01:31 VERNHES Jean-Marie HV2 (13) (FR) 237
165 2:21:59 1:01:44 ASTIE Dominique HV2 (14) (FR) Acro Velo Sport Nature 9
166 2:22:14 1:01:59 ROUGE Valerie DV1 (14) (FR) 203
167 2:22:17 1:02:02 GRANDIDIER Benoit HV1 (36) (FR) Centre De Vol En Montagne 85
168 2:22:54 1:02:39 TURRO Carles HV1 (37) (ES) Vetic Runners 235
169 2:22:55 1:02:40 LOISEL Claudine DV2 (4) (FR) Usca Lescure 127
170 2:23:42 1:03:27 SOLE FABREGAT Oscar HSE (53) (ES) Obrint Traca 220
171 2:25:04 1:04:49 MAS FERRARI Magali DV3 (1) (FR) Ronde Ceretane 144
172 2:25:10 1:04:55 PI Stephanie DSE (41) (FR) Velo Club Vallespir 175
173 2:25:25 1:05:10 LEONARD Marie DV2 (5) (FR) Vtt Evasion 121
174 2:25:37 1:05:22 COLEBORN Sandra DV1 (15) (IE) Raheny 39
175 2:25:57 1:05:42 MARTIN Gilette DV3 (2) (FR) Eaunes Est La 140
176 2:26:04 1:05:49 GALLOU Severine DSE (42) (FR) 76
177 2:26:25 1:06:10 JOSE Barrachina HV2 (15) (ES) Intemperie 103
178 2:26:27 1:06:12 DAVID Espallargas HSE (54) (ES) Intemperie 51
179 2:27:03 1:06:48 CABROL Sylvianne DV1 (16) (FR) 29
180 2:27:03 1:06:48 VIGUIER Bernard HV1 (38) (FR) 241
181 2:27:16 1:07:01 SIMONIN Valerie DSE (43) (FR) 218
182 2:28:15 1:08:00 VERZENI Lionel HV1 (39) (FR) 239
183 2:28:41 1:08:26 DOUARCHE Gerard HV2 (16) (FR) 62
184 2:28:49 1:08:34 PASSOS Marie DV1 (17) (FR) Accro Velo Sports Nature 167
185 2:29:15 1:09:00 ASTIE Laurette DV1 (18) (FR) 10
186 2:29:36 1:09:21 BOIVIN Florence DV1 (19) (FR) U.A.Tarbes 22
187 2:29:43 1:09:28 SANS Raquel DSE (44) (ES) 213
188 2:29:44 1:09:29 SANS DURAN Monica DSE (45) (ES) Vertic Runners 214
189 2:29:58 1:09:43 MOUCHEROUD Marie Pierre DV1 (20) (FR) 160
190 2:30:08 1:09:53 PETIT Muriel DV1 (21) (FR) 173
191 2:31:12 1:10:57 PLANA Miriam DSE (46) (ES) Geps 177
192 2:31:14 1:10:59 MACHADO BARATA Sonia DSE (47) (ES) 132
193 2:31:19 1:11:04 RIEU Jean-Jacques HV1 (40) (FR) 189
194 2:31:26 1:11:11 MORHAIN Bruno HV1 (41) (FR) 159
195 2:31:50 1:11:35 OLIVE Marie-Andree DV2 (6) (FR) Pacoulix 165
196 2:32:20 1:12:05 AIMAR Marjorie DSE (48) (FR) 2
197 2:32:23 1:12:08 DUARTE Chritophe HSE (55) (FR) 65
198 2:32:23 1:12:08 FRANCOIS Magali DSE (49) (FR) Accro Velo Sport Nature 74
199 2:32:44 1:12:29 GUILLON Adele DJU (1) (FR) 249
200 2:32:47 1:12:32 SARTOR Pierre HV3 (4) (FR) 215
201 2:33:30 1:13:15 GUILLON Anne DSE (50) (FR) 88
202 2:34:35 1:14:20 PAUZIE Richard HSE (56) (FR) 169
203 2:34:47 1:14:32 STRIANESE Stephanie DSE (51) (FR) 15
204 2:35:03 1:14:48 OLIVE Maryse DV3 (3) (FR) 131

Page 4 de 5
Clt. Temps Diff. NOM Prenom Catg. Club Dos.
205 2:35:11 1:14:56 PRENDIN Severine DSE (52) (FR) Cahors Athletisme 181
206 2:35:41 1:15:26 BAUDOUY Beatrice DV1 (22) (FR) 17
207 2:36:04 1:15:49 PEREIRA CARNEIRO Marie-Josee
DV1 (23) (FR) 171
208 2:36:14 1:15:59 MARRERO RODRIGUEZ Elena DSE (53) (ES) Club Deportivo Arista - Base139
Deportes Sal
209 2:38:51 1:18:36 LAMBERT Jean-Louis HV3 (5) (FR) 110
210 2:39:43 1:19:28 CRIVELLE Dani HSE (57) (ES) Centre Excursionista De Xerta47
211 2:39:53 1:19:38 TAPIA Christine DV2 (7) (FR) 227
212 2:40:16 1:20:01 VITOVA Jitka DSE (54) (ES) 244
213 2:40:18 1:20:03 CANET Carole DSE (55) (ES) 31
214 2:41:57 1:21:42 ROUALDES Stephanie DSE (56) (FR) 202
215 2:43:49 1:23:34 BROTONS Franck HV1 (42) (FR) Sdis 66 28
216 2:43:50 1:23:35 REVOL Stephane HV1 (43) (FR) Sdis66 188
217 2:43:53 1:23:38 MAS Corine DV1 (24) (FR) Sdis66 143
218 2:45:31 1:25:16 CHENOT Marie-Carmen DV1 (25) (FR) Les Runar'S 36
219 2:47:21 1:27:06 VILA RESPALL Montserrat DSE (57) (ES) Independent 242
220 2:47:22 1:27:07 MASSANA I MILA Josepa DV2 (8) (ES) Cem Molins De Rei 146
221 2:51:14 1:30:59 COUVE Joel HV2 (17) (FR) 46
222 2:51:17 1:31:02 COSTA COUVE Nathalie DV1 (26) (FR) 44
223 3:05:33 1:45:18 BEZARD Daniele DV2 (9) (FR) 20
224 3:19:31 1:59:16 LAMBERT Jacqueline DV3 (4) (FR) 109
225 3:20:08 1:59:53 SCHOLZ Christine DV2 (10) (FR) 216
226 3:20:14 1:59:59 LIPNICK Christian HV2 (18) (FR) 126
227 4:35:05 3:14:50 HIDALGO MARTINEZ Jesus HSE (58) (ES) Vertirunners 96
228 4:35:13 3:14:58 MARTINEZ DE MARSAY Mireia DSE (58) (ES) Verticrunners 141
DQ CASAS FRANCAS Xavier HV1 (DQ) (ES) Centre Excursionista Garrigenc
138
DQ PETIT Serge HV1 (DQ) (FR) 174

Page 5 de 5